www.pogodaiklimat.ru

Погода и климат >> Архив погоды >> Мексика >> Ла-Пас


ПОГОДА в Ла-Пасе

  • Прогноз погоды в Ла-Пасе
  • Монитор погоды в Ла-Пасе

АРХИВ ПОГОДЫ в Ла-Пасе

Время (UTC), дата Ветер
(напр.,м/с)
 
Видим.   Явления Облачность Т
(С)
Тd
(С)
f
(%)
Тe
(С)
Тes
(С)
Комфортность P
(гПа)
Po
(гПа)
Тmin
(С)
Tmax
(С)
R
(мм)
R24
(мм)
S
(см)
06 14.01 С 1 2000 м 4/0
[Cs]
+19.8 +17.8 88 +24 +24 комфорт 1018.0 1015.9 +28.1
09 14.01 штиль 0 2000 м 3/0
[Ac trans Cs]
+17.4 +15.5 89 +17 +17 1017.5 1015.4
12 14.01 Ю 2 2000 м 1/0
[Ci fib]
+15.5 +13.7 89 +15 +15 1017.3 1015.1 +15.2 +28.1
15 14.01 штиль 0 20 км 9/9 1200 м
[Sc diur, vesp As op]
+16.4 +15.1 92 +16 +16 1017.7 1015.5
18 14.01 С 1 25 км {морось, ливн. осадки} 10/4 1000 м
[Sc diur, vesp As op]
+20.8 +17.9 83 +26 +27 душно 1018.8 1016.6 0.4
21 14.01 Ю 1 20 км дождь 10/0 1000 м
[As op]
+18.9 +18.1 95 +21 +24 комфорт 1019.3 1017.1 7
00 15.01 З 1 20 км слаб. морось 10/3 1000 м
[Sc As op]
+18.6 +17.7 95 +21 +21 комфорт 1017.4 1015.3 10
03 15.01 З 1 20 км слаб. морось 10/3 1000 м
[Sc As op]
+18.6 +17.7 95 +21 +21 комфорт 1017.4 1015.3 10
06 15.01 ЮЗ 1 2000 м 8/0 2000 м
[As trans]
+17.9 +17.3 96 +19 +19 1019.1 1017.0 +14.4 +21.4
09 15.01 ЮВ 1 2000 м 5/0 2000 м
[As trans]
+16.8 +16.5 98 +18 +18 1018.6 1016.4
12 15.01 Ю 1 2000 м 6/0 2000 м
[As trans]
+15.8 +15.6 99 +16 +16 1018.1 1016.0 +15.4 +21.4
15 15.01 ЮВ 1 20 км 9/4 1200 м
[Sc diur, vesp As trans]
+16.4 +16.1 98 +17 +18 1019.6 1017.5
18 15.01 Ю 1 30 км 6/0 2000 м
[As trans]
+21.2 +18.8 86 +26 +33 душно 1020.4 1018.3 +15.2 +21.2
21 15.01 С 1 30 км 6/1 1200 м
[Sc diur, vesp As trans Ci fib]
+24.9 +19.0 70 +30 +37 душно 1018.0 1015.8
00 16.01 С 1 30 км 6/1 1200 м
[Sc diur, vesp As trans Ci fib]
+24.9 +19.0 70 +30 +30 душно 1018.0 1015.8
03 16.01 СВ 1 2000 м ясно +22.2 +19.3 84 +28 +28 душно 1018.3 1016.2
06 16.01 В 1 2000 м ясно +19.5 +18.5 94 +23 +23 комфорт 1019.4 1017.3 +15.2 +26.4
09 16.01 В 1 2000 м 3/3 1200 м
[Sc diur, vesp]
+17.8 +16.7 93 +19 +19 1019.1 1017.0
12 16.01 штиль 0 2000 м ясно +16.0 +15.4 96 +16 +16 1019.5 1017.4 +15.4 +26.4
15 16.01 Ю 1 1000 м туман ?/? +15.6 +15.3 98 +16 +16 1020.3 1018.1
18 16.01 С 1 30 км 5/1 1200 м
[Sc diur, vesp Cs]
+22.6 +19.1 81 +29 +38 очень
душно
1020.9 1018.7 +14.6 +23.1
21 16.01 СЗ 2 30 км 6/1 1200 м
[Sc diur, vesp Ci fib]
+24.4 +18.5 70 +29 +36 душно 1018.5 1016.4
00 17.01 З 3 25 км 9/0
[Cs]
+22.4 +19.3 83 +28 +29 душно 1017.8 1015.7 +14.6 +25.2
03 17.01 СВ 2 2000 м 6/0 2000 м
[As trans Cs]
+20.3 +17.7 85 +24 +24 комфорт 1018.7 1016.6
06 17.01 В 1 2000 м ясно +18.4 +17.2 93 +20 +20 1019.5 1017.4 +14.6 +25.2
09 17.01 штиль 0 2000 м 3/0
[Cs]
+16.4 +15.8 96 +16 +16 1019.5 1017.4
12 17.01 Ю 1 2000 м 3/0
[Ci fib]
+15.4 +14.4 94 +16 +16 1018.9 1016.8 +15.0 +25.2
15 17.01 Ю 1 15 км 5/3 1200 м
[Sc diur, vesp Ci fib]
+14.4 +13.4 94 +15 +16 1019.5 1017.3
18 17.01 С 2 30 км 5/0 2000 м
[Ac trans]
+22.6 +17.5 73 +28 +34 душно 1020.1 1018.0 +13.4 +22.6
21 17.01 С 2 30 км 6/0 2000 м
[Ac trans]
+24.6 +17.7 65 +29 +34 душно 1018.2 1016.1
00 18.01 С 3 30 км 9/0 2000 м
[Ac trans Cs]
+24.2 +15.7 59 +27 +28 жарко 1018.3 1016.1 +13.4 +25.2
03 18.01 СВ 2 2000 м 4/0 2000 м
[Ac trans]
+20.9 +17.1 79 +25 +25 комфорт 1019.1 1017.0
06 18.01 СВ 1 2000 м 3/0 2000 м
[As trans]
+19.8 +17.4 86 +24 +24 комфорт 1019.6 1017.5 +13.4 +25.2
09 18.01 СВ 1 2000 м 5/0 2000 м
[Ac As]
+17.6 +16.0 90 +19 +19 1018.0 1015.9
12 18.01 СВ 1 2000 м 3/0
[As trans]
+16.0 +14.7 92 +17 +17 1018.3 1016.1 +15.6
15 18.01 Ю 1 20 км 8/0 2000 м
[As trans Ci fib]
+15.2 +14.1 93 +16 +16 1018.7 1016.6
18 18.01 С 2 30 км 1/0
[Cs]
+24.2 +14.8 56 +27 +37 жарко 1019.0 1016.9 +14.6 +24.7
21 18.01 С 4 30 км 1/0 2000 м
[As trans]
+26.0 +15.0 51 +29 +35 душно 1017.3 1015.1
00 19.01 СВ 3 30 км 1/0
[Cs]
+25.7 +14.1 49 +28 +29 жарко 1016.1 1013.9 +14.6 +27.4
03 19.01 СВ 1 2000 м 1/0
[Cs]
+21.4 +14.8 66 +24 +24 комфорт 1017.2 1015.1
06 19.01 штиль 0 2000 м ясно +19.1 +14.8 76 +20 +20 1017.6 1015.5 +14.6 +27.4
09 19.01 СВ 2 2000 м ясно +21.2 +14.5 66 +24 +24 комфорт 1017.5 1015.4
12 19.01 С 4 2000 м ясно +20.3 +15.6 74 +23 +23 комфорт 1017.1 1014.9 +17.8 +27.4

 

Местоположение метеостанции Ла-Пас (Мексика): широта 24.17 долгота -110.30 высота над уровнем моря 18 м.

В архиве по умолчанию представлена погода в Ла-Пасе за последнюю неделю. Архивные данные за месяц целиком и за предыдущие месяцы, начиная с января 2011 года, Вы можете получить, выбрав интересующий диапазон дат из раскрывающегося списка и нажав кнопку "Ввод!".


*Определитесь, кто Вы:
робот инопланетянин человек

Внимание! Время в таблицах - всемирное. Для получения местного времени необходимо прибавить поправку, которая равна -6 ч.

Смотрите также архив погоды в соседних городах и на ближайших метеорологических станциях:

Погода в Сьюдад-Конститусьоне (Мексика) (166 км)
Погода в Лорето (Мексика) (229 км)
Погода в Кульякане (Мексика) (302 км)
Погода в Чойсе (Мексика) (354 км)
Погода с Сьюдад-Обрегоне (Мексика) (361 км)
Погода в Санта-Розалии (Мексика) (397 км)
Погода в Мазатлане (Мексика) (412 км)
Погода в Гуаймасе (Мексика) (421 км)
Погода в Эмпальме (Мексика) (422 км)
Погода в Тепеуанесе (Мексика) (481 км)

Пояснения к столбцам:

Ветер - указаны скорость ветра в м/с - средняя за 10 мин, порывы в срок и между сроками (в фигурных скобках) и направление, откуда дует ветер: С - северный, СВ - северо-восточный, В - восточный, ЮВ - юго-восточный, Ю - южный, ЮЗ - юго-западный, З - западный, СЗ - северо-западный.
Видимость - горизонтальная дальность видимости в метрах или километрах. При видимости от 1 до 10 км при отсутствии осадков обычно наблюдается дымка, при ухудшении видимости до 1 км и менее - туман. В сухую погоду видимость может ухудшаться дымом, пылью или мглою.
Явления - указаны атмосферные явления, наблюдавшиеся в срок или в последний час перед сроком; фигурными скобками обозначены явления, наблюдавшиеся между сроками (за 1-3 часа до срока); квадратными скобками обозначены град или гололедные отложения с указанием их диаметра в мм.
Облачность - указаны через наклонную черту общая и нижняя облачность в баллах и высота нижней границы облаков в метрах; квадратными скобками обозначены формы облаков: Ci - перистые, Cs - перисто-слоистые, Cc - перисто-кучевые, Ac - высококучевые, As - высокослоистые, Sc - слоисто-кучевые, Ns - слоисто-дождевые, Cu - кучевые, Cb - кучево-дождевые. Подробнее классификацию облаков см. в Атласе облаков (PDF).
T - Температура воздуха - температура, измеренная на высоте 2 м над землей.
Td - Температура точки росы - температура, при понижении до которой содержащийся в воздухе водяной пар достигнет насыщения.
f - Относительная влажность воздуха - влажноcть воздуха, измеренная на высоте 2 м над землей.
Te - Эффективная температура - температура, которую ощущает одетый по сезону человек в тени. Характеристика душности погоды. При расчете учитывается влияние влажности воздуха и скорости ветра на теплоощущения человека.
Tes - Эффективная температура на солнце - температура, которую ощущает человек, с поправкой на солнечный нагрев. Характеристика знойности погоды. Зависит от высоты солнца над горизонтом, облачности и скорости ветра. Ночью, в пасмурную погоду, а также при ветре 12 м/с и более поправка равна нулю.
P - Атмосферное давление - приведенное к уровню моря атмосферное давление.
Po - Атмосферное давление - измеренное на уровне метеостанции атмосферное давление.
Tmin - Минимальная температура - минимум температуры воздуха на высоте 2 м над землей.
Tmax - Максимальная температура - максимум температуры воздуха на высоте 2 м над землей.
R - Количество осадков - Количество выпавших осадков за период времени, мм. При наведении курсора мыши на число - период времени, за который выпало указанное количество осадков.
R24 - Количество осадков - Количество выпавших осадков за 24 часа, мм.
S - Снежный покров - Высота снежного покрова, см. При наведении курсора мыши на число - состояние снежного покрова и степень покрытия местности в баллах.